Regional Weather Roundup
Issued by NWS

Home | Current Version | Previous Version | Graphics & Text | Print | Product List | Glossary On
Versions: 1 2 3 4 5 6 7 8 9 10 11 12 13 14 15 16 17 18 19 20 21 22 23 24 25 26 27 28 29 30 31 32 33 34 35 36 37 38 39 40 41 42 43 44 45 46 47 48 49 50
000
ASUS45 KCYS 030610
RWRWY

WYOMING REGIONAL WEATHER ROUNDUP
NATIONAL WEATHER SERVICE CHEYENNE WY
1200 AM MDT THU SEP 03 2015

NOTE:  "FAIR" INDICATES FEW OR NO CLOUDS BELOW 12,000 FEET
WITH NO SIGNIFICANT WEATHER AND/OR OBSTRUCTIONS TO VISIBILITY.

WYZ001-030700-
YELLOWSTONE NATIONAL PARK

CITY           SKY/WX    TMP DP  RH WIND       PRES   REMARKS
LK YELLOWSTONE   N/A     44  34  67 CALM      30.12S
6HR MIN TEMP:  44; 6HR MAX TEMP:  68;

W YELLOWSTONE  NOT AVBL

$$
WYZ002>013-054>058-071-098>099-030700-
NORTHERN WYOMING

CITY           SKY/WX    TMP DP  RH WIND       PRES   REMARKS
JACKSON        FAIR      55  36  47 CALM      30.01S
CODY           FAIR      72  37  28 W6        29.87S
GREYBULL       FAIR      68  38  33 SE6       29.78R
6HR MIN TEMP:  67; 6HR MAX TEMP:  94;

WORLAND        FAIR      69  38  32 CALM      29.81R
6HR MIN TEMP:  68; 6HR MAX TEMP:  92;

SHERIDAN       FAIR      63  40  42 VRB7      29.77R
6HR MIN TEMP:  62; 6HR MAX TEMP:  93;

BUFFALO        FAIR      78  31  17 W15       29.87F
6HR MIN TEMP:  72; 6HR MAX TEMP:  90;

GILLETTE       FAIR      77  36  22 S17       29.83S
6HR MIN TEMP:  69; 6HR MAX TEMP:  91;

HULETT         FAIR      73  34  23 S10       29.84F
NEWCASTLE      FAIR      75  30  19 E9        29.88S

$$
WYZ014>020-022>026-101>103-030700-
CENTRAL WYOMING

CITY           SKY/WX    TMP DP  RH WIND       PRES   REMARKS
BIG PINEY      FAIR      55  33  43 N5        30.10S
6HR MIN TEMP:  52; 6HR MAX TEMP:  76;

PINEDALE       FAIR      52  36  54 CALM      30.11S
DUBOIS         FAIR      54  30  40 NW13      30.08S
LANDER         FAIR      67  38  34 CALM      29.95S
6HR MIN TEMP:  67; 6HR MAX TEMP:  85;

RIVERTON       FAIR      69  36  29 SW7       29.96R
6HR MIN TEMP:  69; 6HR MAX TEMP:  87;

CASPER         FAIR      71  39  31 S13       29.97S
6HR MIN TEMP:  66; 6HR MAX TEMP:  86;

DOUGLAS        FAIR      75  39  27 SW10      29.96S
6HR MIN TEMP:  69; 6HR MAX TEMP:  91;


$$
WYZ021-027>030-104>119-030700-
SOUTHERN WYOMING

CITY           SKY/WX    TMP DP  RH WIND       PRES   REMARKS
EVANSTON       FAIR      61  34  36 SE8       30.10S
6HR MIN TEMP:  61; 6HR MAX TEMP:  78;

KEMMERER       FAIR      59  32  36 CALM      30.12S
FORT BRIDGER   CLEAR     59  36  41 S10       30.12F
ROCK SPRINGS   FAIR      64  37  36 S6        30.10F
6HR MIN TEMP:  62; 6HR MAX TEMP:  78;

DIXON          FAIR      61  44  53 CALM      30.15S
RAWLINS        FAIR      65  40  39 W8        30.12S
6HR MIN TEMP:  64; 6HR MAX TEMP:  81;

SARATOGA       FAIR      63  43  48 S9        30.16S
LARAMIE        FAIR      54  41  61 VRB3      30.18S
6HR MIN TEMP:  54; 6HR MAX TEMP:  77;

CHEYENNE       FAIR      66  43  43 W10       30.08F
6HR MIN TEMP:  66; 6HR MAX TEMP:  83;

TORRINGTON     FAIR      69  47  45 SE7       29.91S
6HR MIN TEMP:  68; 6HR MAX TEMP:  91;

PINE BLUFFS    FAIR      63  39  42 CALM      30.03S

$$



USA.gov is the U.S. government's official web portal to all federal, state and local government web resources and services.